RH
16 14 14 23 29 42 43 34 26 24 37 52 46 52 71 90 71 69 100 99 98 92 99 99 98 75 65 59 56 55 57 60 59 59 58 57 53 51 45 37 30 23 18 16 15 15 20 24 33
14 13 18 27 34 40 36 26 22 29 43 60 61 66 73 88 97 99 100 99 100 94 99 100 97 83 68 64 63 64 63 62 63 61 54 44 33 22 16 12 10 10 10 11 12 12 12 13 13
14 12 23 31 37 37 35 22 33 29 46 41 55 61 72 88 98 99 99 97 100 99 98 99 90 76 72 68 68 68 68 66 54 32 16 11 10 10 10 11 11 12 12 12 12 12 13 14 14
14 16 19 23 25 24 25 20 17 15 34 44 52 72 82 84 82 93 97 98 98 99 100 97 83 80 76 74 72 68 54 26 10 9 10 11 12 12 12 12 12 12 12 12 13 14 14 14 14
18 22 27 26 25 20 15 13 13 18 37 48 49 78 94 88 88 93 93 96 91 93 97 94 88 83 79 72 54 28 12 10 11 12 12 12 12 12 12 12 12 13 13 13 12 12 12 11 11
19 20 28 29 23 17 15 13 12 20 45 54 59 77 96 86 89 92 91 90 96 92 95 92 86 77 57 32 16 12 12 12 14 13 13 12 12 12 12 13 13 13 13 13 13 13 12 12 11
21 28 30 28 23 19 14 10 11 41 47 50 49 83 100 100 96 91 92 92 96 95 92 76 78 64 50 34 12 12 13 13 13 13 12 12 12 12 13 13 13 13 14 14 14 14 13 12 12
21 26 24 25 22 22 14 11 24 33 47 46 44 92 97 100 99 95 97 97 98 94 83 67 68 58 42 26 13 12 13 13 13 13 13 13 14 14 14 14 15 14 14 13 12 12 11 11 10
24 22 26 21 21 18 13 12 19 31 41 41 42 43 48 89 96 98 97 99 98 87 69 63 54 50 21 14 13 15 14 14 14 14 14 14 14 15 15 15 14 13 12 11 10 9 9 10 10
23 26 21 16 16 16 13 11 11 31 50 65 58 51 54 76 92 96 99 97 91 77 54 49 36 28 18 14 14 16 16 16 15 14 15 16 16 16 15 14 13 12 12 11 10 10 10 9 9
22 25 20 16 13 13 13 10 9 38 46 52 65 73 70 75 89 90 93 88 84 77 56 44 32 22 17 15 15 16 16 17 16 16 17 18 18 16 15 14 14 13 12 11 11 10 10 10 10
29 24 21 18 15 15 11 8 9 20 22 21 28 28 52 66 66 78 83 90 84 85 73 54 38 24 20 19 17 18 19 19 18 18 19 19 17 16 15 15 14 12 11 11 12 11 11 10 10
28 24 19 17 18 13 10 10 10 10 13 20 47 48 50 58 59 68 78 84 80 75 67 55 42 25 22 21 21 20 23 24 22 20 19 18 17 16 15 14 14 13 13 14 13 12 11 10 11
31 25 25 22 18 14 12 11 10 17 23 36 48 56 54 57 50 65 78 76 71 66 56 47 39 30 29 30 26 23 28 27 25 21 18 18 16 16 16 16 16 15 15 15 14 13 12 10 10
25 30 29 26 18 14 13 15 13 19 32 44 53 52 58 60 53 43 55 70 67 62 56 46 44 42 48 45 40 36 32 29 27 20 19 18 17 17 18 18 17 17 16 15 14 12 10 9 9
30 32 38 27 22 19 16 22 15 20 46 59 56 60 61 58 42 48 50 54 60 62 61 55 51 51 56 50 46 38 34 30 28 23 20 19 19 19 20 19 18 18 16 15 13 12 11 9 7
41 50 41 33 24 23 17 21 14 11 46 57 59 58 58 59 57 52 50 52 51 54 56 58 51 49 54 56 51 42 35 32 27 23 21 21 21 21 21 20 20 19 17 14 12 11 10 8 5
58 50 45 40 27 26 28 25 17 11 19 46 55 56 58 56 50 55 54 52 51 54 54 53 52 44 48 55 51 47 36 30 27 25 24 23 23 24 22 22 21 19 16 13 11 9 8 7 5
42 42 43 34 27 27 26 26 25 21 14 16 47 52 53 50 45 55 56 55 54 54 54 53 52 48 44 53 52 48 36 32 30 28 25 25 26 26 24 23 21 17 14 13 10 7 7 6 5
45 46 44 34 30 30 33 31 30 23 17 15 31 45 47 48 52 56 54 54 53 52 54 55 54 46 42 40 47 39 35 34 34 29 28 29 28 26 23 21 17 13 11 9 7 7 7 6 6
48 51 47 44 36 31 31 34 30 24 21 16 17 25 38 44 47 55 56 52 52 52 54 55 53 45 37 48 47 42 42 40 36 33 34 32 28 25 21 17 14 11 9 8 7 7 8 11 12
56 39 39 40 42 52 31 48 31 26 25 24 19 20 32 41 50 54 56 53 50 52 56 55 51 44 45 47 44 43 38 36 35 36 36 34 28 22 18 16 13 10 9 8 7 8 8 11 15
51 41 44 43 42 48 41 47 35 29 29 28 26 19 23 38 52 54 54 48 53 52 55 56 50 46 44 41 43 45 44 39 36 38 38 35 29 23 20 15 11 9 8 7 7 8 9 11 14
40 43 45 45 57 83 57 45 41 36 33 30 26 25 20 26 41 46 54 58 58 57 57 56 53 50 45 43 55 53 52 46 39 39 39 38 31 27 22 13 10 8 8 7 8 10 11 11 18
47 50 73 80 95 89 46 52 39 37 34 34 34 28 25 24 37 53 61 65 65 63 59 57 55 53 49 48 59 57 54 44 40 38 39 38 33 31 21 12 10 8 8 8 9 10 10 12 17
53 58 75 78 87 70 52 67 50 33 35 32 39 35 25 29 49 59 67 66 69 58 57 60 59 55 51 54 57 54 50 45 43 41 41 39 34 32 20 12 10 8 8 8 10 11 10 13 15
54 58 45 68 66 89 72 52 40 47 48 47 44 51 56 54 59 68 70 73 54 48 54 56 58 55 55 53 51 47 45 47 44 42 41 41 36 33 18 12 10 8 8 9 10 11 10 13 14
45 54 72 95 97 94 81 75 76 54 48 50 54 51 53 59 64 65 62 56 63 60 59 61 60 59 58 56 50 47 49 46 44 43 42 41 35 32 17 13 10 8 8 9 10 9 8 10 10
63 81 92 93 100 99 98 91 57 64 59 58 64 55 48 54 58 60 62 58 56 54 59 62 62 61 61 58 49 49 50 48 46 43 43 40 34 26 18 12 10 8 8 8 9 8 9 9 8
77 85 92 100 99 99 99 95 55 64 56 42 40 42 48 51 49 51 53 57 60 62 63 62 64 63 62 61 51 50 50 49 46 45 42 37 37 24 16 13 11 8 8 9 10 9 10 10 9
Wind_Speed
12 10 5 3 3 4 5 6 5 9 3 5 13 11 10 7 3 3 26 23 24 24 22 19 18 18 18 18 16 15 14 12 11 10 9 8 8 6 4 3 2 2 4 5 7 7 9 9 11
9 8 6 1 3 1 6 6 9 8 9 19 16 9 6 4 3 15 24 24 22 23 22 20 19 19 18 17 15 13 13 12 11 11 10 8 7 5 4 2 0 2 4 6 7 8 10 11 12
7 5 4 4 4 7 6 5 0 13 22 7 9 12 6 7 13 31 23 24 24 23 23 22 21 19 17 16 15 13 13 12 12 11 10 8 6 5 3 1 1 3 5 7 8 9 10 11 12
3 4 3 2 11 12 6 8 17 15 9 5 19 10 8 4 21 18 27 26 26 25 22 21 19 18 17 15 14 14 13 12 11 10 9 8 6 4 1 1 3 5 6 8 9 10 11 12 13
4 2 1 3 9 8 8 22 25 11 6 6 8 7 6 14 10 23 28 25 24 25 23 21 18 17 17 16 15 14 13 12 11 10 8 6 4 2 2 2 3 5 7 8 9 9 10 11 12
2 1 1 5 10 7 11 30 28 10 14 10 10 9 5 12 19 28 24 23 22 24 23 22 19 17 16 15 16 16 15 13 12 10 8 5 3 2 2 3 4 5 6 7 8 9 10 11 12
6 4 5 7 14 12 14 26 11 8 12 4 21 6 13 24 27 26 24 22 22 22 24 21 20 19 17 16 15 15 14 13 11 9 7 5 3 3 3 3 4 4 5 6 7 9 9 10 11
8 4 5 7 12 14 14 26 9 15 3 20 9 8 9 34 32 28 24 22 21 23 23 21 21 19 18 18 17 16 14 12 10 8 6 5 5 5 4 3 3 4 4 6 7 8 8 9 10
17 1 6 11 4 14 28 10 5 9 18 5 2 11 7 40 34 32 29 26 25 26 26 24 23 22 21 19 18 16 14 12 10 9 9 8 8 7 4 2 1 3 4 6 8 8 9 8 9
6 5 9 6 9 12 21 9 4 5 4 5 10 10 25 39 37 35 35 32 31 28 27 25 24 23 21 20 18 16 15 14 12 11 10 8 7 4 4 3 2 3 5 7 9 9 10 10 9
5 9 9 20 27 30 19 12 4 13 5 15 24 30 39 40 38 35 32 31 31 28 27 26 23 22 22 21 20 18 16 14 13 12 9 9 7 6 5 2 2 5 6 8 9 10 10 11 11
5 12 16 22 31 23 9 16 5 12 13 19 28 29 41 41 40 40 37 35 34 32 28 26 25 24 22 20 19 17 16 14 13 12 10 9 8 6 5 2 3 6 8 9 10 11 11 11 11
5 7 15 18 26 15 23 10 10 12 7 13 31 35 40 40 38 36 35 35 34 35 32 31 29 27 26 23 20 18 14 13 13 12 11 9 8 6 3 2 4 6 9 11 12 12 12 13 13
19 19 18 24 19 13 6 7 7 2 15 25 33 37 39 40 38 37 37 39 38 35 33 30 28 27 26 23 20 17 14 14 13 12 11 9 7 4 1 2 4 7 9 11 12 13 13 13 12
10 7 11 11 6 6 6 6 7 12 23 31 35 38 40 39 37 39 39 39 38 37 34 33 31 28 26 22 20 18 16 15 14 13 11 9 6 3 1 3 5 7 9 11 12 12 12 11 11
6 2 5 8 6 10 8 10 10 17 30 32 37 38 41 42 41 39 36 35 36 36 36 33 32 31 28 26 23 21 19 17 15 14 10 7 4 2 0 2 5 8 10 10 11 11 11 10 10
3 6 9 11 8 8 6 7 17 24 33 29 35 42 44 41 39 39 39 38 37 36 35 33 33 33 31 26 24 23 21 17 15 13 10 7 5 2 1 4 6 8 8 9 10 11 11 11 11
5 6 7 8 8 5 12 13 17 22 25 30 35 37 35 41 46 45 43 41 39 39 36 32 33 33 32 28 26 24 22 18 15 12 9 7 4 1 2 4 6 6 7 9 10 11 11 11 10
10 13 13 12 16 7 12 12 10 13 18 19 30 31 35 44 46 46 48 49 48 44 41 37 34 35 34 32 31 27 23 20 16 13 10 6 3 1 2 3 5 5 6 8 9 10 10 8 7
15 19 20 18 15 8 9 16 10 7 7 20 29 34 41 41 37 48 52 54 54 51 44 38 35 35 35 33 30 24 23 19 16 14 11 7 4 3 2 2 3 4 5 6 7 9 11 11 9
20 18 17 18 13 17 4 25 7 6 8 16 27 43 48 48 48 50 55 58 58 53 49 41 36 34 35 32 28 27 24 22 21 17 13 9 5 4 2 0 2 2 4 6 7 8 9 11 10
22 10 19 21 15 13 8 18 19 5 11 8 19 28 34 37 41 51 57 60 60 55 47 40 34 34 34 32 33 32 30 27 21 16 12 9 7 4 3 1 1 2 3 5 6 7 8 9 9
29 14 19 17 7 5 6 3 32 10 13 9 6 17 21 29 38 49 58 63 61 56 52 42 36 34 34 36 35 32 26 22 21 20 15 11 8 7 4 3 1 1 2 4 5 6 6 7 8
3 5 13 19 3 9 11 10 24 9 13 8 10 18 33 41 52 58 56 56 59 55 50 43 38 35 35 36 34 31 29 28 26 22 16 13 9 7 6 4 2 1 2 3 4 5 5 7 7
16 1 4 2 3 10 12 7 20 2 8 10 12 23 24 41 48 49 50 52 54 54 49 44 40 36 36 34 32 32 31 29 27 21 20 16 12 8 7 5 3 2 1 2 2 4 5 6 4
21 14 7 7 7 10 10 11 9 4 5 2 5 7 20 36 41 43 47 54 55 51 46 44 40 37 36 37 38 36 33 30 27 23 21 16 11 9 8 6 5 3 2 2 2 3 4 4 4
15 10 17 8 1 1 4 5 3 6 8 8 9 14 13 26 31 32 36 41 47 50 50 48 42 36 38 40 39 37 33 31 29 26 21 16 14 12 10 8 6 4 3 3 2 2 1 3 2
8 5 3 1 7 9 5 3 3 6 6 8 9 8 14 18 27 34 40 44 45 47 43 43 41 37 39 38 38 36 33 31 29 25 22 19 16 14 11 9 7 5 5 4 3 2 2 2 0
5 4 4 2 4 3 1 1 6 10 11 11 10 17 5 19 27 36 39 42 40 46 50 48 43 40 38 38 39 37 34 32 29 26 23 21 17 15 12 10 10 8 7 6 6 5 4 4 3
6 0 4 3 4 3 1 3 5 10 11 11 14 18 10 7 22 32 40 44 49 49 49 47 45 41 38 40 41 40 37 34 31 27 24 22 18 16 11 11 11 9 9 8 8 7 6 5 5
Wind_Direction
303 310 283 216 37 65 263 259 262 288 320 9 95 115 111 49 52 178 151 161 166 171 171 170 166 168 166 167 164 162 159 159 161 162 165 165 166 171 179 196 233 285 308 314 319 320 315 307 299
296 292 234 206 108 268 267 230 259 271 151 117 85 99 61 95 100 142 151 161 168 173 172 171 172 168 169 170 168 162 158 160 161 161 161 163 165 163 161 159 15 342 339 331 330 327 321 315 310
299 242 197 155 176 209 233 241 211 318 177 187 122 81 104 123 133 148 160 164 172 175 176 175 178 176 172 169 164 162 162 164 163 159 155 151 149 146 140 128 339 325 321 320 318 315 311 307 304
262 194 225 158 244 245 238 279 276 298 258 169 125 79 89 185 145 157 158 170 174 178 181 177 172 175 174 170 167 168 166 159 155 155 150 148 149 150 160 291 310 315 317 317 314 312 310 308 304
212 230 279 258 255 275 256 259 262 241 214 170 149 125 97 151 165 162 165 170 175 179 182 170 173 174 173 171 166 164 161 159 157 156 159 162 165 187 230 274 300 309 313 315 315 313 310 309 307
219 147 68 265 270 267 277 278 278 246 158 154 103 105 135 160 171 168 168 171 180 184 181 172 173 175 171 168 166 163 164 167 173 177 172 175 184 232 271 302 316 322 320 320 317 315 318 315 316
175 90 226 250 277 295 283 301 265 170 142 181 141 87 143 158 167 170 168 176 182 184 178 179 182 177 177 177 175 172 172 176 179 181 185 192 203 240 266 292 296 304 313 317 316 318 324 317 315
230 131 247 235 267 278 283 321 44 123 114 143 157 151 170 170 170 173 175 182 187 185 184 184 183 182 182 184 181 182 181 185 191 193 191 198 209 219 226 234 268 310 325 321 315 319 316 314 311
246 351 240 249 226 269 287 315 354 130 135 146 190 181 189 170 179 172 177 185 188 186 186 183 184 183 183 183 185 186 186 190 196 197 200 206 202 203 217 248 289 297 311 307 308 318 313 311 308
153 207 239 213 242 253 270 270 339 120 129 57 103 154 156 170 179 180 181 185 186 185 185 186 185 186 186 187 189 190 192 196 200 205 199 202 207 195 222 220 275 298 313 313 321 320 318 312 310
220 224 245 260 252 257 261 254 254 139 247 190 167 156 164 173 181 189 190 187 187 187 187 185 187 187 189 190 192 195 195 198 200 204 196 195 201 203 222 253 294 313 323 325 325 328 329 330 329
247 249 254 271 268 255 228 243 234 185 222 233 198 184 172 178 185 190 192 190 186 189 190 186 187 187 188 193 195 197 195 196 198 197 190 195 196 202 226 257 305 327 327 334 339 340 341 337 334
224 263 277 280 292 278 251 222 218 235 241 225 183 178 181 184 187 190 194 193 191 192 194 190 190 189 192 194 198 199 192 197 197 195 191 190 198 212 239 300 324 331 342 346 346 348 348 347 346
268 285 290 293 280 279 222 255 209 225 175 174 182 187 189 191 188 187 192 193 196 197 198 197 195 194 194 195 200 205 199 195 195 193 191 192 198 212 224 315 345 347 348 346 345 345 344 347 346
257 296 303 278 253 257 290 304 214 210 181 177 189 194 193 195 190 196 195 197 197 198 196 195 194 195 194 198 200 209 207 198 193 192 192 193 194 198 344 356 349 343 345 344 344 341 342 342 342
300 325 268 275 263 265 158 252 259 201 178 180 190 195 198 198 198 196 199 197 198 198 195 192 195 194 196 196 199 205 204 200 194 191 193 192 181 154 35 319 341 350 345 339 334 335 342 348 347
218 240 249 290 221 247 160 261 256 229 189 187 191 196 199 199 198 199 203 200 202 201 195 194 195 197 195 199 202 198 199 198 194 190 186 182 169 164 299 340 345 339 335 333 333 338 344 353 356
226 224 246 222 263 199 263 243 253 260 199 197 196 197 196 197 202 200 203 204 205 202 199 198 196 196 195 194 193 196 193 194 191 187 179 176 173 196 330 328 330 334 339 335 337 341 350 357 358
246 266 263 272 272 278 260 251 236 252 235 203 196 194 197 204 204 201 203 203 200 201 199 198 196 195 196 193 190 192 192 189 188 183 182 176 182 237 284 309 337 344 338 339 342 341 346 356 7
240 249 259 270 265 251 283 277 239 239 224 212 191 195 199 203 195 200 200 201 201 199 199 196 197 198 196 196 195 196 192 185 189 185 182 183 196 224 262 318 341 344 347 346 346 346 352 0 12
245 244 258 265 278 275 278 282 240 241 232 230 212 207 202 194 194 193 197 200 198 199 197 195 197 200 197 193 192 189 188 189 187 184 183 186 193 208 221 283 2 332 345 346 353 358 359 12 19
259 248 257 264 268 262 188 276 265 208 251 218 210 202 201 195 193 191 191 197 200 198 196 197 197 196 194 190 189 191 190 192 191 186 185 187 190 187 196 205 250 334 351 352 358 2 2 5 21
262 266 257 272 258 352 222 234 275 210 248 249 199 193 193 201 188 189 197 201 198 197 195 194 193 191 192 192 193 195 192 199 195 189 191 193 188 187 184 198 224 299 3 359 6 355 359 357 14
310 289 262 241 179 267 244 219 273 217 239 239 251 226 194 200 202 202 197 192 192 195 192 187 189 191 194 193 195 201 197 201 200 196 194 196 194 191 191 203 219 190 355 351 354 347 347 358 15
267 206 288 248 178 244 164 183 234 204 297 237 247 250 234 215 202 186 185 184 187 190 186 184 187 190 193 199 195 198 207 210 203 201 202 203 199 195 199 198 205 210 298 327 326 325 341 354 -0
221 213 215 214 209 254 172 234 257 244 326 198 86 250 257 206 186 181 180 179 181 186 188 186 187 190 197 196 197 204 207 209 204 208 207 202 202 207 211 202 203 207 262 276 289 315 338 340 353
235 214 229 259 84 15 218 297 12 11 41 55 73 70 93 145 164 166 170 172 185 194 191 193 190 196 201 199 201 202 202 204 206 208 208 205 205 214 212 202 203 213 228 233 252 280 321 309 334
201 130 199 13 210 229 228 171 213 3 2 40 26 102 142 147 160 168 178 189 192 192 193 192 197 200 202 204 204 204 203 207 207 207 208 208 212 215 206 201 208 212 215 217 223 215 208 213 160
19 72 83 223 229 229 235 221 61 38 24 22 14 19 65 178 185 186 187 195 202 202 201 196 198 198 201 203 203 203 201 202 207 207 209 212 213 209 204 203 210 203 202 198 206 195 178 172 138
71 281 146 240 222 238 150 226 119 49 354 357 354 12 34 251 209 206 202 201 204 202 199 202 199 200 204 204 202 201 203 201 204 205 211 212 210 210 206 208 206 199 196 194 192 182 167 159 140